Aasiaat

KL  EN  DA
ASIAQ
Weather Now GREENLAND SURVEY
Updated [WGT/WGST] Temperature [°C] Wind [m/s] Air pressure [hPa] Relative humidity [%] Precipitation [mm]
Present Wind chill Speed Max
17.04 23:00-13,2-21,45,0 ⇖6,71015710,0
17.04 22:00-13,0-20,84,6 ⇖6,21015670,0
17.04 21:00-12,8-20,64,6 ⇖6,21014660,0
17.04 20:00-12,9-20,14,0 ⇖5,71014670,0
17.04 19:00-11,7-19,44,8 ⇖6,71013640,0
17.04 18:00-11,9-19,44,5 ⇖6,71013640,0
17.04 17:00-12,1-20,15,0 ⇖7,21012660,0
17.04 16:00-11,6-20,05,8 ⇖7,71011650,0
17.04 15:00-12,3-19,44,0 ⇖5,11011630,0
17.04 14:00-12,2-18,83,6 ⇖5,11011610,0
17.04 13:00-12,4-19,43,9 ⇖5,11010630,0
17.04 12:00-12,7-20,54,6 ⇖6,21010630,0
17.04 11:00-13,9-20,93,6 ⇖5,11010660,0
17.04 10:00-14,7-22,74,4 ⇖5,71010660,0
17.04 09:00-15,2-23,14,2 ⇖5,11010660,0
17.04 08:00-16,3-24,34,0 ⇖5,11009630,0
17.04 07:00-16,3-24,94,6 ⇖5,71009630,0
17.04 06:00-16,4-25,55,2 ⇖6,71008640,0
17.04 05:00-16,2-25,04,8 ⇖6,71008660,0
17.04 04:00-15,5-25,36,2 ⇖8,21008670,0
17.04 03:00-15,1-24,66,0 ⇖8,81008680,0
17.04 02:00-15,0-24,56,1 ⇖8,21007670,0
17.04 01:00-15,0-24,25,7 ⇖7,71007650,0
17.04 00:00-15,0-24,96,5 ⇖8,81007670,0
16.04 23:00-14,7-23,45,2 ⇖7,21007730,0
Position: (68.7166666666,-52.78333333)

[Back]